COSMOS 2228 (22286 NORAD) Tracking and Keplerian Element Data

This shows tracking and keplerian element data for the satellite.

Feedback or suggestion? Click here.




ElementValue
Catalog22286
NameCOSMOS 2228
Epoch Orbit36026
Epoch Day198.89849881
Epoch Year2018
RAAN0.8742
Inclination82.5202
Eccentricity0.001979
Argument of Perigee245.9481
Mean Anonmoly113.9666
Mean Motion14.87952889
Decay Rate1.35E-06
L11 22286U 92094A 18198.89849881 .00000135 00000-0 11952-4 0 9997
L22 22286 82.5202 0.8742 0019790 245.9481 113.9666 14.87952889360261

Live tracking and technical data element details for COSMOS 2228 (NORAD 22286). COSMOS 2228 can be tracked NOW for your location showing map with azimuth and elevation plus other details from your city location.

Track the satellite on the map from your city or location and see movement details for azimuth, elevation, latitude, longitude, range, height, and movement on the map or in text.







IsCatalogInMostPopularTable: catalog: 22286, numindb: 25
Update: records affected: 1



GetName: 22286 COSMOS 2228

Hit Count: updated at: Fri, 20 Jul 2018 20:33:28 GMT